Regional Weather Roundup
Issued by NWS

Home | Current Version | Previous Version | Graphics & Text | Print | Product List | Glossary On
Versions: 1 2 3 4 5 6 7 8 9 10 11 12 13 14 15 16 17 18 19 20 21 22 23 24 25 26 27
000
ASUS45 KCYS 142310
RWRWY

WYOMING REGIONAL WEATHER ROUNDUP
NATIONAL WEATHER SERVICE CHEYENNE WY
400 PM MST THU DEC 14 2017

NOTE:  "FAIR" INDICATES FEW OR NO CLOUDS BELOW 12,000 FEET
WITH NO SIGNIFICANT WEATHER AND/OR OBSTRUCTIONS TO VISIBILITY.

WYZ001-150000-
YELLOWSTONE NATIONAL PARK

CITY           SKY/WX    TMP DP  RH WIND       PRES   REMARKS
LK YELLOWSTONE   N/A     21  16  81 CALM      30.33S
W YELLOWSTONE  NOT AVBL

$$
WYZ002>013-054>058-071-098>099-150000-
NORTHERN WYOMING

CITY           SKY/WX    TMP DP  RH WIND       PRES   REMARKS
JACKSON        FAIR      33  16  49 SW5       30.34F WCI  29
CODY           FAIR      38  16  40 S5        30.21F WCI  34
GREYBULL       FAIR      41  19  41 S3        30.22F
WORLAND        FAIR      38  20  48 S6        30.24F WCI  33
SHERIDAN       FAIR      38  22  52 NW9       30.19F WCI  31
BUFFALO        FAIR      37  18  46 NW8       30.19F WCI  31
GILLETTE       FAIR      32  21  64 NW8       30.18F WCI  25
HULETT         FAIR      30  19  64 W3        30.19F
NEWCASTLE      CLOUDY    28  18  64 NW12      30.21S WCI  18

$$
WYZ014>020-022>026-101>103-150000-
CENTRAL WYOMING

CITY           SKY/WX    TMP DP  RH WIND       PRES   REMARKS
BIG PINEY      FAIR      35  14  42 S3        30.28R
PINEDALE       FAIR      28  21  74 SE7       30.29S WCI  21
DUBOIS         FAIR      34  -4  19 NW17G35   30.21F WCI  23
LANDER         FAIR      30  19  63 S6        30.25S WCI  24
RIVERTON       FAIR      32  20  61 SW8       30.26F WCI  25
CASPER         FAIR      31  21  66 SW12      30.23S WCI  22
DOUGLAS        FAIR      32  19  58 NW13      30.22S WCI  22

$$
WYZ021-027>030-104>119-150000-
SOUTHERN WYOMING

CITY           SKY/WX    TMP DP  RH WIND       PRES   REMARKS
EVANSTON       FAIR      36  22  56 W8        30.34S WCI  30
FORT BRIDGER   FAIR      38  13  35 W13G22    30.34R WCI  30
ROCK SPRINGS   FAIR      34  15  46 W12       30.28S WCI  25
DIXON          FAIR      31  19  61 W6        30.33S WCI  25
RAWLINS        FAIR      27  18  69 W10       30.28R WCI  17
SARATOGA       FAIR      23  18  80 W5        30.29S WCI  17
LARAMIE        FAIR      19  13  77 NW14      30.19S WCI   6
CHEYENNE       FAIR      28  16  60 NW18G32   30.18S WCI  15
TORRINGTON     FAIR      34  20  56 N12G17    30.21S WCI  25
PINE BLUFFS    CLOUDY    32  18  55 N22G28    30.21R WCI  19

$$




USA.gov is the U.S. government's official web portal to all federal, state and local government web resources and services.